Regional Weather Roundup
Issued by NWS Bismarck, ND

Home | Current Version | Previous Version | Text Only | Print | Product List | Glossary On
Versions: 1 2 3 4 5 6 7 8 9 10 11 12 13 14 15 16 17 18 19 20 21 22 23 24 25 26 27 28 29 30 31 32 33 34 35 36 37 38 39 40 41 42 43 44 45 46 47 48 49 50
000
ASUS43 KBIS 260801
RWRBIS

NWR BROADCAST TEXT
NATIONAL WEATHER SERVICE BISMARCK ND
200 AM CST MON JAN 26 2015

NOTE: "FAIR" INDICATES FEW OR NO CLOUDS BELOW 12,000 FEET WITH NO
SIGNIFICANT WEATHER AND/OR OBSTRUCTIONS TO VISIBILITY.


CITY           SKY/WX    TMP DP  RH WIND       PRES   REMARKS
WILLISTON      CLOUDY    38  33  82 SE5       29.87R
MINOT          MOCLDY    38  31  76 W14       29.75S
MINOT AFB      MOCLDY    37  36  93 NW20      29.74S
BISMARCK       CLEAR     40  32  73 NW12      29.80R
DICKINSON      CLEAR     40  33  76 W14       29.85R
GARRISON         N/A     39  34  82 NW20      29.79R
HETTINGER ARPT CLEAR     38  32  79 W14       29.89R
JAMESTOWN      MOCLDY    39  32  76 NW23G30   29.68R
CARRINGTON     PTSUNNY   37  37 100 MISG      29.70R
CROSBY         PTSUNNY   39  34  81 W15       29.84R
HAZEN          FAIR      37  32  81 SW9       29.83R
LINTON         FAIR      37  37 100 W12       29.79R
OAKES            N/A     32  32 100 SW10      29.71R
WATFORD CITY   FAIR      39  34  81 W10G18    29.86R
$$

CITY           SKY/WX    TMP DP  RH WIND       PRES   REMARKS
GRAND FORKS    PTCLDY    28  25  88 S9        29.61F WCI  19
GRAND FORKS AF NOT AVBL
DEVILS LAKE    MOCLDY    36  30  80 NW20      29.65R
FARGO          MOCLDY    31  27  85 S12       29.70R
GWINNER        PTSUNNY   34  34 100 SW18G31   29.70F
$$

CITY           SKY/WX    TMP DP  RH WIND       PRES   REMARKS
ABERDEEN       PTCLDY    35  30  82 SW13G22   29.76F
MOBRIDGE       PTCLDY    36  31  82 W5        29.79F
BUFFALO          N/A     41  33  73 NW17      29.87F
RAPID CITY     PTCLDY    52  30  43 NW16      29.96R
GLASGOW        CLEAR     35  31  85 W9        29.93S
SIDNEY         CLOUDY    37  32  81 S6        29.92F
WOLF POINT     PTCLDY    38  33  82 SW10      29.91F
GLENDIVE       CLEAR     39  34  81 CALM      29.95S
MILES CITY     CLEAR     43  32  65 W5        29.99S
BAKER          CLEAR     35  31  85 W14       29.94F
$$

CITY           SKY/WX    TMP DP  RH WIND       PRES   REMARKS
BILLINGS       MOCLDY    48  29  47 SW17      30.09S
GREAT FALLS    MOCLDY    55  26  32 SW20G30   30.08S
$$




USA.gov is the U.S. government's official web portal to all federal, state and local government web resources and services.